| time (UTC) | temp F | wind direction | speed MPH | gust MPH | rain 1hr in | rain 24hr in | rain mn in | humidity % | barometer mb |
| 20260508124609 | 60 | 0 | 0.0 | 1.0 | 0.00 | 0.00 | 0.00 | 90 | 1014.6 |
| 20260508123036 | 60 | 0 | 0.0 | 0.0 | 0.00 | 0.00 | 0.00 | 90 | 1014.6 |
| 20260508121546 | 60 | 0 | 0.0 | 2.0 | 0.00 | 0.00 | 0.00 | 90 | 1014.6 |
| 20260508120042 | 60 | 0 | 0.0 | 2.0 | 0.00 | 0.00 | 0.00 | 90 | 1014.6 |
| 20260508114539 | 60 | 0 | 0.0 | 1.0 | 0.00 | 0.00 | 0.00 | 90 | 1014.5 |
| 20260508113103 | 60 | 0 | 0.0 | 2.0 | 0.00 | 0.00 | 0.00 | 90 | 1014.6 |
| 20260508111536 | 60 | 0 | 0.0 | 0.0 | 0.00 | 0.00 | 0.00 | 90 | 1014.5 |
| 20260508110040 | 60 | 0 | 0.0 | 0.0 | 0.00 | 0.00 | 0.00 | 90 | 1014.5 |
| 20260508104553 | 60 | 0 | 0.0 | 4.0 | 0.00 | 0.00 | 0.00 | 90 | 1014.5 |
| 20260508103041 | 60 | 0 | 0.0 | 2.0 | 0.00 | 0.00 | 0.00 | 90 | 1014.6 |
| 20260508101543 | 60 | 293 | 0.0 | 2.0 | 0.00 | 0.00 | 0.00 | 90 | 1014.7 |
| 20260508100039 | 60 | 0 | 0.0 | 2.0 | 0.00 | 0.00 | 0.00 | 90 | 1014.8 |
| 20260508094540 | 60 | 275 | 0.0 | 0.0 | 0.00 | 0.00 | 0.00 | 90 | 1014.6 |
| 20260508093039 | 60 | 0 | 0.0 | 0.0 | 0.00 | 0.00 | 0.00 | 90 | 1014.6 |
| 20260508091542 | 60 | 0 | 0.0 | 2.0 | 0.00 | 0.00 | 0.00 | 90 | 1014.6 |
| 20260508090045 | 60 | 258 | 0.0 | 2.0 | 0.00 | 0.00 | 0.00 | 90 | 1014.7 |
| 20260508084539 | 61 | 0 | 0.0 | 4.0 | 0.00 | 0.00 | 0.00 | 89 | 1014.9 |
| 20260508083039 | 61 | 273 | 0.0 | 2.0 | 0.00 | 0.00 | 0.00 | 89 | 1014.9 |
| 20260508081539 | 60 | 273 | 0.0 | 2.0 | 0.00 | 0.00 | 0.00 | 90 | 1015.1 |
| 20260508080040 | 61 | 246 | 0.0 | 3.0 | 0.00 | 0.00 | 0.00 | 89 | 1015.2 |
| 20260508074539 | 61 | 112 | 0.0 | 3.0 | 0.00 | 0.00 | 0.00 | 89 | 1015.2 |
| 20260508073040 | 61 | 0 | 1.0 | 3.0 | 0.00 | 0.00 | 0.00 | 89 | 1015.3 |
| 20260508071542 | 61 | 0 | 0.0 | 1.0 | 0.00 | 0.00 | 0.00 | 89 | 1015.2 |
| 20260508070045 | 61 | 0 | 0.0 | 2.0 | 0.00 | 0.00 | 0.00 | 89 | 1015.3 |
| 20260508064558 | 61 | 263 | 1.0 | 2.0 | 0.00 | 0.00 | 0.00 | 89 | 1015.3 |
| 20260508063039 | 61 | 288 | 0.0 | 4.0 | 0.00 | 0.00 | 0.00 | 89 | 1015.5 |
| 20260508061552 | 61 | 248 | 1.0 | 3.0 | 0.00 | 0.00 | 0.00 | 89 | 1015.5 |
| 20260508060048 | 61 | 269 | 0.0 | 3.0 | 0.00 | 0.00 | 0.00 | 89 | 1015.5 |
| 20260508054604 | 61 | 0 | 0.0 | 2.0 | 0.00 | 0.00 | 0.00 | 89 | 1015.4 |
| 20260508053040 | 61 | 0 | 0.0 | 0.0 | 0.00 | 0.00 | 0.00 | 89 | 1015.5 |
| 20260508051541 | 61 | 0 | 0.0 | 1.0 | 0.00 | 0.00 | 0.00 | 89 | 1015.5 |
| 20260508050039 | 61 | 241 | 0.0 | 2.0 | 0.00 | 0.00 | 0.00 | 88 | 1015.5 |
| 20260508044539 | 61 | 241 | 0.0 | 2.0 | 0.00 | 0.00 | 0.00 | 89 | 1015.3 |
| 20260508043048 | 61 | 241 | 0.0 | 3.0 | 0.00 | 0.00 | 0.00 | 88 | 1015.2 |
| 20260508041539 | 61 | 0 | 0.0 | 1.0 | 0.00 | 0.00 | 0.00 | 89 | 1014.9 |
| 20260508040048 | 61 | 206 | 0.0 | 4.0 | 0.00 | 0.00 | 0.00 | 89 | 1014.7 |
| 20260508034541 | 61 | 267 | 0.0 | 4.0 | 0.00 | 0.00 | 0.00 | 89 | 1014.6 |
| 20260508033041 | 60 | 0 | 0.0 | 0.0 | 0.00 | 0.00 | 0.00 | 90 | 1014.4 |
| 20260508031550 | 60 | 0 | 0.0 | 0.0 | 0.00 | 0.00 | 0.00 | 89 | 1014.2 |
| 20260508030039 | 60 | 0 | 0.0 | 1.0 | 0.00 | 0.00 | 0.00 | 88 | 1014.0 |
| 20260508024539 | 61 | 252 | 0.0 | 3.0 | 0.00 | 0.00 | 0.00 | 86 | 1014.0 |
| 20260508023039 | 62 | 0 | 0.0 | 2.0 | 0.00 | 0.00 | 0.00 | 85 | 1013.9 |
| 20260508021540 | 62 | 0 | 0.0 | 3.0 | 0.00 | 0.00 | 0.00 | 84 | 1013.7 |
| 20260508020040 | 63 | 0 | 1.0 | 3.0 | 0.00 | 0.00 | 0.00 | 83 | 1013.7 |
| 20260508014540 | 64 | 261 | 1.0 | 4.0 | 0.00 | 0.00 | 0.00 | 82 | 1013.5 |
| 20260508013041 | 65 | 200 | 1.0 | 8.0 | 0.00 | 0.00 | 0.00 | 81 | 1013.4 |
| 20260508011544 | 65 | 271 | 2.0 | 6.0 | 0.00 | 0.00 | 0.00 | 78 | 1013.6 |
| 20260508010044 | 66 | 0 | 1.0 | 4.0 | 0.00 | 0.00 | 0.00 | 77 | 1013.5 |
| 20260508004541 | 66 | 304 | 1.0 | 6.0 | 0.00 | 0.00 | 0.00 | 77 | 1013.4 |
| 20260508003045 | 67 | 254 | 2.0 | 8.0 | 0.00 | 0.00 | 0.00 | 76 | 1013.5 |
| 20260508001539 | 67 | 294 | 2.0 | 7.0 | 0.00 | 0.00 | 0.00 | 75 | 1013.4 |
| 20260508000122 | 69 | 315 | 1.0 | 6.0 | 0.00 | 0.00 | 0.00 | 74 | 1013.6 |
| 20260507234546 | 68 | 311 | 2.0 | 8.0 | 0.00 | 0.00 | 0.00 | 76 | 1013.6 |
| 20260507233127 | 69 | 270 | 1.0 | 5.0 | 0.00 | 0.00 | 0.00 | 73 | 1013.6 |
| 20260507231545 | 70 | 334 | 1.0 | 8.0 | 0.00 | 0.00 | 0.00 | 75 | 1013.6 |
| 20260507230039 | 69 | 59 | 2.0 | 9.0 | 0.00 | 0.00 | 0.00 | 73 | 1013.5 |
| 20260507224539 | 69 | 241 | 3.0 | 6.0 | 0.00 | 0.01 | 0.00 | 73 | 1013.6 |
| 20260507223044 | 70 | 329 | 2.0 | 9.0 | 0.00 | 0.01 | 0.00 | 75 | 1013.7 |
| 20260507221540 | 69 | 261 | 3.0 | 8.0 | 0.00 | 0.01 | 0.00 | 73 | 1013.9 |
| 20260507220040 | 70 | 271 | 4.0 | 12.0 | 0.00 | 0.01 | 0.00 | 73 | 1014.0 |
| 20260507214546 | 71 | 250 | 3.0 | 8.0 | 0.00 | 0.01 | 0.00 | 71 | 1014.1 |
| 20260507213042 | 69 | 312 | 5.0 | 11.0 | 0.00 | 0.01 | 0.00 | 71 | 1014.2 |
| 20260507211551 | 70 | 315 | 3.0 | 9.0 | 0.00 | 0.01 | 0.00 | 71 | 1014.2 |
| 20260507210046 | 70 | 267 | 3.0 | 9.0 | 0.00 | 0.01 | 0.00 | 72 | 1014.4 |
| 20260507204539 | 70 | 285 | 3.0 | 10.0 | 0.00 | 0.01 | 0.00 | 72 | 1014.4 |
| 20260507203039 | 71 | 247 | 3.0 | 9.0 | 0.00 | 0.01 | 0.00 | 71 | 1014.4 |
| 20260507201539 | 71 | 273 | 4.0 | 11.0 | 0.00 | 0.01 | 0.00 | 71 | 1014.5 |
| 20260507200043 | 71 | 304 | 3.0 | 10.0 | 0.00 | 0.01 | 0.00 | 71 | 1014.4 |
| 20260507194540 | 70 | 234 | 5.0 | 10.0 | 0.00 | 0.01 | 0.00 | 71 | 1014.4 |
| 20260507193048 | 70 | 269 | 3.0 | 10.0 | 0.00 | 0.01 | 0.00 | 72 | 1014.6 |
| 20260507191540 | 70 | 257 | 4.0 | 9.0 | 0.00 | 0.01 | 0.00 | 72 | 1014.7 |
| 20260507190039 | 70 | 291 | 3.0 | 12.0 | 0.00 | 0.01 | 0.00 | 72 | 1014.7 |
| 20260507184535 | 69 | 250 | 3.0 | 9.0 | 0.00 | 0.01 | 0.00 | 73 | 1015.0 |
| 20260507183039 | 71 | 311 | 2.0 | 8.0 | 0.00 | 0.01 | 0.00 | 71 | 1015.1 |
| 20260507181537 | 70 | 297 | 3.0 | 9.0 | 0.00 | 0.01 | 0.00 | 71 | 1015.1 |
| 20260507180040 | 70 | 0 | 2.0 | 8.0 | 0.00 | 0.01 | 0.00 | 72 | 1015.2 |
| 20260507174556 | 69 | 277 | 2.0 | 8.0 | 0.00 | 0.01 | 0.00 | 73 | 1015.2 |
| 20260507173044 | 69 | 287 | 1.0 | 6.0 | 0.00 | 0.01 | 0.00 | 76 | 1015.2 |
| 20260507171558 | 68 | 238 | 1.0 | 4.0 | 0.00 | 0.01 | 0.00 | 76 | 1015.3 |
| 20260507170039 | 67 | 233 | 2.0 | 4.0 | 0.00 | 0.01 | 0.00 | 77 | 1015.3 |
| 20260507164539 | 66 | 239 | 1.0 | 2.0 | 0.00 | 0.02 | 0.00 | 80 | 1015.3 |
| 20260507163036 | 64 | 291 | 1.0 | 4.0 | 0.00 | 0.02 | 0.00 | 83 | 1015.5 |
| 20260507161540 | 61 | 0 | 0.0 | 3.0 | 0.00 | 0.02 | 0.00 | 86 | 1015.6 |
| 20260507160107 | 61 | 0 | 0.0 | 4.0 | 0.00 | 0.02 | 0.00 | 87 | 1015.6 |
| 20260507154539 | 61 | 5 | 1.0 | 4.0 | 0.00 | 0.02 | 0.00 | 88 | 1015.8 |
| 20260507153039 | 60 | 0 | 0.0 | 3.0 | 0.00 | 0.02 | 0.00 | 90 | 1015.7 |
| 20260507151539 | 59 | 106 | 0.0 | 3.0 | 0.00 | 0.02 | 0.00 | 92 | 1015.7 |
| 20260507150043 | 59 | 0 | 0.0 | 2.0 | 0.00 | 0.02 | 0.00 | 93 | 1015.6 |
| 20260507144540 | 59 | 0 | 0.0 | 2.0 | 0.00 | 0.02 | 0.00 | 94 | 1015.6 |
| 20260507143037 | 58 | 101 | 1.0 | 4.0 | 0.00 | 0.02 | 0.00 | 95 | 1015.4 |
| 20260507141537 | 58 | 90 | 1.0 | 3.0 | 0.00 | 0.02 | 0.00 | 96 | 1015.3 |
| 20260507140047 | 57 | 0 | 0.0 | 2.0 | 0.00 | 0.02 | 0.00 | 96 | 1015.2 |
| 20260507134539 | 57 | 0 | 0.0 | 4.0 | 0.00 | 0.02 | 0.00 | 96 | 1015.2 |
| 20260507133037 | 56 | 95 | 1.0 | 3.0 | 0.00 | 0.02 | 0.00 | 96 | 1015.1 |
| 20260507131607 | 55 | 97 | 1.0 | 3.0 | 0.00 | 0.02 | 0.00 | 96 | 1015.1 |
| 20260507130039 | 54 | 97 | 0.0 | 0.0 | 0.00 | 0.02 | 0.00 | 96 | 1015.0 |